TELSTAR 14R

Last updated on Sat Nov 01 2025 00:02:46 GMT+0000 (Coordinated Universal Time)

1 37602U 11021A 25303.52885345 -.00000270 00000+0 00000+0 0 9994 2 37602 0.0233 265.1357 0001069 23.4669 237.9084 1.00269088 53536
UTC large
Height (km)
Speed (km/s)
/
Latitude / Longitude
Inclination (degrees)
Orbital Period (minutes)
Azimuth
Elevation
Range (km)
Doppler Factor

Next 0 passes for location: London (51.5072 / 0.1276)

Sorry there are no passes over London.